Find Starlink 5289

NORAD ID: 55278 Int'l Des: 2023-010 Owner: SPXS Country: US Constellation: starlink operational
LEOCIRCULAR

現在のビュー

3D地球を読み込み中...

About Starlink 5289

Starlink 5289 (NORAD 55278) is a starlink constellation satellite (v1.5) launched Jan 19, 2023 by SPXS of US. It operates in LEO, CIRCULAR orbit with a mass of 305.00 kg.

次回通過

Passes for default location (London). Set your location on the main map for personalized predictions.

高度履歴

Loading altitude history...

軌道要素

1 55278U 23010K 26237.69931503 .00000090 00000-0 15323-4 0 9996
2 55278 70.0004 338.2536 0003495 269.6949 90.3809 14.98332324198091
Epoch: Aug 25, 2026 • Age: 12 hours

現在のステータス

高度 577.1 km
遠地点 / 近地点 N/A
速度 7.57 km/s
衛星直下点 -15.96°S, 115.34°E
打ち上げ日 Jan 19, 2023
運用期間 3.5 years
タイプ internet

技術仕様

分類 Payload
質量 305.00 kg
乾燥質量 290.00 kg
総質量 305.00 kg
長さ 0.20 m
直径 2.80 m
スパン 9.00 m
形状 Box + pan
製造者 SPXS
バスタイプ Starlink
フェーズステータス In Orbit
所有者/国 SPXS/US

Most Searched